User: anonymous   Login
Location: Unspecified
(0.0000°N, 0.0000°E)
Time: 21:13:29
(UTC+00:00)
Language:

LAPAN-TUBSAT - Orbit

View from above orbital plane
View from above orbital plane
View from above satellite
View from above satellite

Ground track
Ground track

The orbit data is extracted from the following two-line orbital elements,

1 29709U 07001A   18147.44488212  .00000057  00000-0  13604-4 0  9999
2 29709  97.7527 115.4505 0014186  50.4711 309.7749 14.82125742614977
Epoch (UTC): 27 May 2018 10:40:37
Eccentricity: 0.0014186
inclination: 97.7527°
perigee height: 612 km
apogee height: 632 km
right ascension of ascending node: 115.4505°
argument of perigee: 50.4711°
revolutions per day: 14.82125742
mean anomaly at epoch: 309.7749°
orbit number at epoch: 61497

The dashed part of the orbit path shows where the satellite is in the earth's shadow,  

DLR